Vorticity
5 5 6 8 8 6 6 9 17 15 3 5 14 12 10 7 -2 1 7 6 2 1 3 3 2 3 1 1 3 1 2 5 6 5 -1 1 13 13 4 0 0 1 2 5 10 10 9 9 9 9 7 6 9 10 9 9 9 8 7 6 5 5 5 5 5 6 5 6 6 6 7 6 4 6 6 6 8 10 11 11 9 9 9 9 8
4 9 11 7 6 7 15 36 41 17 3 13 20 19 14 3 -2 4 8 5 1 -0 3 5 3 3 3 3 2 1 3 5 6 7 2 1 13 14 3 -1 1 1 2 5 9 10 8 8 9 9 7 6 8 9 9 10 9 9 8 7 7 6 5 5 6 6 6 6 6 6 7 6 4 5 6 6 7 7 8 9 8 8 7 6 6
-0 7 15 11 9 8 9 23 22 6 14 28 22 15 10 1 -0 6 6 3 2 1 1 3 3 4 4 3 3 3 3 5 7 9 5 3 13 16 4 -2 1 1 1 4 8 10 9 9 9 8 7 6 7 7 9 10 9 8 9 8 7 6 6 6 6 6 7 7 6 7 7 6 5 4 5 6 5 6 7 7 7 7 6 5 5
4 5 11 12 13 9 0 -1 2 11 27 25 11 6 3 0 2 5 6 5 2 0 1 2 3 4 3 3 5 4 4 8 10 9 4 4 14 17 4 -1 2 1 0 4 8 10 9 9 9 9 7 6 6 7 8 10 9 8 8 8 7 7 7 6 6 6 6 6 6 7 7 6 6 4 5 6 5 5 6 5 6 6 5 6 5
8 9 10 9 8 6 6 5 4 15 23 10 2 4 0 2 6 3 6 7 1 0 1 1 4 4 4 6 5 4 7 10 10 7 4 5 15 16 3 -1 2 -1 -0 5 8 9 8 8 10 9 8 7 5 5 8 10 8 6 7 8 7 8 7 6 6 6 6 6 6 6 7 6 6 5 5 6 6 6 5 5 5 5 5 5 4
6 5 5 7 9 6 3 5 6 11 17 9 4 4 0 4 8 4 5 6 0 0 1 1 5 5 6 8 5 5 8 9 8 7 5 8 15 13 2 -2 -0 -2 -0 4 8 10 8 8 10 10 9 9 5 4 6 8 6 5 6 7 7 7 6 6 6 6 6 6 5 6 7 7 6 6 6 6 6 6 5 6 5 5 5 4 4
9 6 -0 -8 6 18 7 2 8 9 10 9 8 6 2 5 6 2 3 5 1 -0 -0 1 3 4 7 8 7 7 6 5 8 7 6 12 17 10 0 -2 -0 -1 -1 3 8 11 8 7 10 10 9 9 7 4 5 7 5 3 5 7 7 8 6 6 7 6 6 6 6 6 6 7 7 6 5 6 6 6 6 6 6 5 5 4 5
11 12 6 -15 -8 16 13 6 12 9 6 8 10 7 4 6 5 -3 -1 5 2 -1 -1 0 1 4 7 8 7 8 3 0 5 5 8 17 17 7 1 -1 -1 -0 -1 2 8 10 8 6 6 8 10 9 5 1 2 6 5 2 4 6 7 8 7 7 7 6 7 7 6 6 6 6 7 5 5 7 7 7 7 6 7 6 4 4 6
12 10 9 -2 -6 2 7 13 16 7 5 8 8 9 7 5 2 -3 0 6 4 2 1 -2 -1 2 5 8 8 6 -1 -4 1 3 9 20 14 2 2 1 -2 1 1 2 7 8 7 5 4 7 10 8 7 2 -0 4 5 1 2 4 6 8 7 7 7 6 7 7 6 7 7 7 7 6 6 7 8 8 8 7 7 6 4 5 8
13 7 5 6 5 -2 2 20 21 6 6 10 7 9 6 0 0 1 5 8 8 10 2 -6 -1 4 5 8 10 7 -2 -6 -1 1 7 21 16 2 1 1 -1 2 1 1 5 7 6 7 9 12 12 12 13 6 1 5 5 2 1 3 5 6 5 6 8 7 7 7 6 6 6 7 7 7 7 8 8 10 9 7 7 5 5 7 9
11 8 6 5 6 0 6 30 27 3 4 12 8 6 1 -1 4 4 4 6 10 11 2 -6 -0 1 -0 5 9 8 -1 -7 -1 3 5 18 18 4 1 2 -1 1 0 -0 5 7 7 12 17 19 22 24 20 9 3 6 7 4 5 6 8 8 5 5 7 8 7 7 6 6 7 7 7 7 8 8 9 10 8 6 5 5 7 8 9
10 10 10 7 7 0 5 31 28 3 6 15 8 4 4 5 9 5 1 1 5 9 3 -4 -2 -1 4 13 14 10 2 -6 1 6 5 16 19 6 0 1 0 1 -0 -0 5 7 9 14 17 18 25 31 22 7 1 4 5 6 8 10 12 11 6 4 5 7 7 6 6 6 6 7 7 7 8 9 9 9 8 6 5 7 9 9 10
13 14 9 6 10 2 2 27 27 7 8 10 1 5 13 14 12 10 6 2 3 10 5 -3 1 4 6 12 13 13 9 3 5 6 6 17 21 8 -0 1 1 -0 -2 0 6 9 10 11 11 14 25 32 18 -2 -6 -2 2 6 9 11 13 11 7 5 5 6 8 7 5 5 6 7 7 7 8 9 9 8 8 7 6 9 11 10 10
13 15 9 5 9 4 8 30 29 8 -1 -3 -3 8 14 11 11 13 12 10 9 9 3 1 5 0 -5 3 15 24 23 14 10 6 5 17 21 10 1 1 0 -1 -1 1 6 9 9 10 9 11 23 29 10 -15 -17 -4 3 6 8 10 11 9 8 5 4 6 8 6 5 6 6 6 6 7 8 9 9 8 7 7 8 10 12 10 10
13 12 9 10 10 5 15 35 32 11 -3 -6 2 11 7 5 11 13 14 18 17 8 3 6 3 -8 -8 6 22 30 27 17 10 6 6 13 15 9 2 -0 0 1 -1 2 7 8 9 12 11 11 17 22 9 -9 -10 2 6 5 7 9 8 8 8 6 5 6 7 7 7 7 7 7 7 7 8 8 9 9 7 7 9 12 11 8 9
12 11 11 14 10 7 21 35 22 -1 -9 -4 6 8 1 1 7 10 13 18 13 3 3 7 -1 -12 -6 6 16 24 22 13 8 6 6 10 10 7 3 -0 0 1 -1 2 7 8 9 11 10 9 12 16 15 10 7 6 5 4 6 7 7 8 8 7 5 6 7 8 8 8 8 8 6 6 8 8 8 7 8 11 13 11 8 6 8
11 11 13 14 10 9 18 22 8 -6 -6 5 12 7 0 3 8 11 12 10 2 -3 2 4 -4 -9 -4 2 11 22 18 5 5 8 7 8 8 6 2 -1 -0 -0 -1 3 8 9 10 12 11 9 10 14 15 12 7 3 3 6 6 6 7 8 8 7 6 6 8 8 8 10 10 7 6 7 7 7 8 9 13 16 13 7 6 5 2
12 11 13 12 9 9 8 5 7 10 10 9 10 6 1 4 10 10 7 4 -1 -5 -3 -0 -4 -5 -1 1 9 21 15 2 4 10 7 5 6 5 2 0 -0 -1 -0 4 9 10 10 12 12 9 11 18 16 6 1 3 5 6 5 6 8 8 7 7 7 7 8 8 8 10 8 6 7 6 6 10 12 11 12 13 7 4 7 3 -5
15 12 13 10 7 10 9 3 7 14 10 2 2 4 2 3 7 5 1 3 1 -5 -5 -0 -1 -2 -1 -2 3 13 17 14 13 12 8 5 7 6 2 0 0 -0 2 5 9 11 9 9 11 8 9 18 18 7 2 4 5 5 6 6 7 7 7 8 8 8 8 7 8 9 8 7 6 6 11 14 10 7 9 7 3 6 10 3 -3
20 16 15 11 6 8 10 8 7 9 8 2 -1 3 5 6 7 4 2 3 3 -2 -2 0 -1 -1 -0 -1 -2 5 17 22 17 11 10 10 8 5 2 1 1 -0 2 6 9 12 10 8 11 12 10 13 15 8 3 4 5 5 6 6 6 7 8 8 9 8 6 7 9 9 7 5 5 9 14 12 7 7 7 4 6 11 8 0 1
20 21 19 14 9 7 8 9 6 5 8 7 1 0 5 8 8 6 4 4 4 2 1 -0 0 1 1 -1 -3 1 14 22 14 7 15 21 13 2 -0 2 0 -0 4 8 11 12 9 6 9 11 10 12 13 6 1 4 6 6 6 7 7 8 8 9 8 7 6 9 10 7 5 6 9 12 14 10 8 8 7 8 12 9 0 1 10
17 21 22 19 14 8 7 9 6 2 5 8 3 -1 1 5 7 6 5 6 6 4 2 2 3 3 1 -1 -3 -0 13 21 11 2 12 23 16 2 -1 0 -1 1 6 9 10 11 8 6 9 9 8 14 15 7 1 4 7 7 7 7 7 8 8 8 7 7 8 10 8 5 6 8 10 13 16 13 9 9 12 11 6 -1 1 11 16
13 17 22 24 22 15 10 9 7 1 1 5 3 -1 -0 2 3 5 7 8 7 3 1 4 6 4 3 4 1 3 14 21 13 0 1 10 10 4 2 0 -1 2 8 10 11 11 6 6 12 11 10 16 16 5 -0 5 8 7 7 7 8 8 8 8 9 9 9 8 7 7 8 9 13 16 16 12 11 12 10 2 -3 3 12 14 10
11 12 16 22 28 27 20 14 10 2 -3 0 2 -1 -1 1 3 7 9 7 3 -4 -6 1 6 4 5 7 4 5 14 18 12 4 1 3 6 6 4 1 0 5 10 9 8 8 9 11 13 10 12 19 15 1 -2 6 8 6 7 8 7 8 10 10 9 7 7 8 8 8 9 13 16 14 11 11 14 10 1 -2 4 12 12 7 5
11 11 12 14 21 28 29 24 18 9 -0 -2 -0 -2 -2 -0 1 3 5 4 -3 -12 -11 1 7 4 6 8 5 6 13 15 11 9 7 5 6 7 5 1 3 8 10 8 7 10 12 10 6 10 22 26 12 -1 1 8 8 6 8 8 8 11 11 8 6 7 10 10 8 9 13 16 14 11 12 13 6 -2 -2 6 12 11 8 6 6
11 9 9 10 12 18 26 29 27 20 8 -2 -3 -1 -1 -1 -0 -0 1 2 -5 -12 -6 7 11 8 8 8 5 7 12 13 11 10 8 7 7 9 6 3 7 11 9 6 7 11 13 12 13 23 30 20 4 1 7 9 8 8 9 9 10 10 7 5 9 12 12 9 9 12 15 13 10 10 8 0 -8 -5 7 13 11 8 8 7 4
13 11 9 8 8 9 15 22 26 29 23 8 -3 -1 0 0 3 4 2 1 -1 -4 3 12 13 11 9 6 6 10 11 9 9 10 11 12 10 8 6 7 10 12 7 7 14 19 19 19 22 23 16 5 2 8 11 8 8 9 8 8 8 6 6 11 15 13 10 9 12 15 12 7 5 4 -1 -6 -2 10 15 12 9 8 7 4 3
12 12 10 8 6 6 9 14 19 27 30 20 5 1 1 1 6 9 5 1 -0 1 9 16 14 10 8 5 7 11 9 8 13 16 15 12 7 4 6 7 7 6 4 9 19 22 16 11 12 10 5 4 8 11 9 7 7 6 6 8 8 8 13 16 14 10 9 13 17 20 15 6 1 -0 1 6 13 15 11 9 9 7 4 3 3
12 12 12 10 8 6 5 9 15 24 30 24 11 3 2 2 4 6 4 4 7 11 17 20 12 5 5 7 8 9 7 10 16 15 8 3 2 4 5 3 3 5 5 4 7 11 13 13 12 10 8 8 9 7 5 4 4 5 9 11 12 14 16 13 9 8 12 17 20 18 9 0 -0 5 11 15 14 11 10 10 7 3 3 3 2
15 14 13 11 8 7 5 7 14 21 22 18 11 8 9 10 10 11 14 19 19 15 16 17 12 6 7 9 8 7 8 10 12 9 1 -1 3 5 3 1 3 5 7 8 11 15 18 16 13 10 9 8 6 4 3 5 7 11 14 14 13 14 13 10 11 14 16 15 10 2 -4 0 8 13 12 11 10 10 9 6 3 2 3 2 3
17 13 11 9 7 7 8 10 16 20 19 17 17 16 17 21 23 23 25 25 19 11 9 11 10 9 9 10 9 8 8 8 8 4 -0 1 5 4 2 5 7 5 9 14 15 13 12 10 8 7 6 5 5 6 7 11 14 15 14 13 12 12 10 11 15 17 14 8 1 -2 3 10 13 10 9 10 11 9 6 4 3 4 3 3 6
12 11 10 10 10 11 14 16 19 21 21 19 22 24 25 27 27 23 20 17 15 14 14 12 10 13 15 15 15 13 10 7 5 2 0 2 5 5 7 10 11 10 13 11 4 2 7 10 9 7 6 6 8 11 13 14 14 12 11 11 10 9 9 10 13 13 12 9 7 8 11 11 9 9 11 12 9 6 4 5 4 4 4 7 9
12 12 12 15 19 22 25 27 27 28 30 29 28 26 21 17 14 11 8 5 3 7 13 15 17 20 20 17 16 14 10 6 3 1 1 4 9 14 18 17 14 13 12 6 1 3 10 10 7 7 8 9 12 13 13 12 10 8 9 9 8 8 10 12 13 14 13 12 11 10 9 8 10 11 11 9 6 5 5 5 4 4 6 9 10
13 17 23 28 28 24 22 23 21 16 16 19 20 15 10 8 9 9 9 6 3 7 14 17 15 13 11 10 9 8 5 3 2 3 7 14 20 21 18 13 11 12 11 8 8 10 10 8 7 9 11 11 12 12 10 9 8 7 9 10 9 10 11 12 13 13 12 10 9 8 9 10 12 11 9 7 6 5 4 3 4 6 9 10 10
23 25 18 5 1 5 9 16 20 14 10 11 12 8 6 6 6 7 8 10 10 10 11 10 7 5 3 2 1 -0 1 3 7 12 20 24 20 13 8 8 10 11 10 10 10 10 9 9 11 12 12 12 11 10 9 8 8 8 10 11 10 11 12 12 12 11 10 8 8 9 11 11 10 9 7 6 5 4 3 4 7 9 10 10 10
17 7 0 -5 8 22 18 14 19 22 17 12 6 4 7 9 9 11 14 14 12 10 7 5 3 -0 -2 -1 0 2 6 11 16 22 24 19 9 3 4 9 10 9 8 9 9 9 10 12 13 13 12 10 9 9 8 7 7 9 10 11 11 11 12 12 11 9 8 8 9 10 10 10 10 8 6 4 4 4 5 8 10 10 10 9 10
4 -5 -2 8 30 44 29 11 9 11 9 5 2 3 10 14 13 14 15 13 12 9 6 3 1 1 3 6 5 6 12 18 21 22 18 9 3 3 6 8 7 6 7 7 8 10 12 13 12 11 10 9 8 7 6 7 9 11 12 11 12 13 12 10 8 7 7 8 10 10 10 10 9 7 5 5 5 6 7 9 10 9 9 9 10
6 1 -10 -13 7 27 26 20 19 15 10 7 4 4 9 12 10 11 12 11 10 8 4 3 5 6 6 5 5 11 18 19 18 16 12 7 6 6 7 7 6 7 8 9 10 12 12 12 11 9 9 8 7 6 7 10 12 12 13 13 12 11 9 7 7 8 8 9 9 10 10 10 7 5 5 5 5 6 8 9 9 9 9 9 10
11 6 -9 -13 2 12 12 15 18 14 8 4 -0 -1 4 6 6 8 8 7 7 7 6 6 7 5 4 5 10 17 19 16 14 13 10 8 7 6 6 7 8 9 10 11 12 12 11 10 10 9 7 6 6 7 10 12 12 12 12 12 10 8 6 6 8 9 9 10 10 11 11 9 6 5 5 5 5 7 9 10 9 9 9 8 10
16 10 2 1 2 -2 -1 7 10 6 3 2 2 3 5 4 3 4 5 6 7 7 7 6 5 6 9 12 14 16 15 13 12 10 7 6 5 5 6 9 10 11 11 11 11 11 11 10 9 7 5 5 7 9 11 12 12 12 11 9 7 6 6 7 8 9 10 11 11 11 9 6 5 5 5 5 6 9 10 10 9 9 8 9 9
13 7 6 6 2 -3 2 7 5 2 4 5 4 3 2 2 5 7 9 10 9 6 6 8 10 13 15 14 14 15 14 9 7 5 5 5 5 5 7 10 10 10 11 11 10 11 10 8 6 5 5 7 9 11 12 12 12 11 9 7 6 6 7 8 9 10 11 12 12 10 7 6 6 6 5 6 9 10 10 9 9 9 8 8 8
10 4 2 3 3 4 7 8 6 7 9 6 3 4 5 7 11 13 13 15 15 14 14 15 15 15 13 12 15 16 10 3 3 4 4 3 4 6 9 10 10 10 10 9 8 8 7 5 5 6 8 10 11 11 12 12 11 9 7 5 5 6 8 9 10 12 13 13 11 8 6 6 6 6 6 8 10 10 9 8 8 8 8 8 7
10 8 5 5 5 7 8 6 5 6 6 2 0 3 7 10 13 13 13 15 17 16 14 13 13 12 11 13 17 12 3 -0 3 3 1 3 7 9 9 10 9 9 8 8 8 7 6 6 7 9 10 11 12 12 12 10 8 6 5 5 7 8 10 11 12 13 14 12 9 7 6 6 6 6 8 11 10 8 8 8 8 8 8 7 6
6 6 6 7 7 7 7 6 5 5 7 9 8 6 5 7 10 11 11 11 11 11 9 8 11 17 21 21 16 5 -3 -2 2 3 3 6 9 9 8 9 9 8 8 8 8 6 6 8 10 11 12 12 12 11 10 7 6 5 5 7 9 10 11 13 13 13 12 9 7 6 6 7 7 9 10 10 8 7 7 8 8 8 8 7 7
10 10 10 7 6 6 8 10 9 6 4 5 7 6 5 6 7 10 11 9 5 5 7 11 18 26 28 21 8 -2 -4 1 4 5 6 7 7 7 7 8 7 7 8 8 7 6 8 10 10 11 11 11 9 8 6 5 5 6 7 10 11 12 13 14 14 12 10 8 7 7 8 8 9 9 9 8 7 6 7 7 7 7 8 7 7
4 6 10 12 13 12 9 8 12 13 10 8 8 9 9 8 7 7 8 8 4 -0 4 15 24 23 15 7 1 -2 1 6 7 7 7 6 5 7 7 7 8 9 9 7 7 8 10 11 11 10 10 8 6 5 5 6 7 8 10 12 13 13 13 13 12 11 9 8 7 8 8 8 9 8 7 6 6 6 6 7 7 7 7 7 7
5 3 6 11 16 19 20 19 18 14 7 5 7 9 9 9 8 6 8 12 11 3 2 14 23 15 3 -0 1 0 2 7 9 7 6 5 6 8 8 8 9 9 8 7 8 8 9 10 10 8 7 5 4 5 7 8 10 11 12 13 13 13 13 12 11 10 8 7 7 8 8 8 7 7 6 6 7 6 6 7 7 7 7 7 7
3 0 5 11 15 16 11 3 -2 -2 4 13 22 25 23 21 21 19 15 15 17 12 7 11 18 14 4 0 0 -0 3 8 9 6 4 5 7 8 9 9 9 8 7 7 8 8 8 9 8 6 5 4 5 7 10 11 12 12 12 12 12 12 12 12 11 9 8 8 8 8 8 7 6 6 6 7 7 7 6 6 6 6 6 7 7
-7 1 11 15 15 11 3 -3 -2 7 17 24 29 31 30 26 23 24 25 28 30 29 21 15 15 12 6 1 1 3 7 9 7 4 5 8 8 8 8 8 7 7 7 7 8 8 9 9 7 6 5 6 8 10 11 12 12 13 12 11 12 12 12 12 11 9 8 8 7 7 7 6 6 6 7 8 7 6 6 6 6 6 6 7 7
9 19 20 12 7 7 8 10 13 17 18 17 14 13 14 11 6 9 18 25 26 25 19 11 8 6 3 2 4 7 8 7 5 5 7 8 8 8 8 7 7 8 8 8 8 8 8 7 6 5 6 8 10 11 12 13 13 12 12 11 12 12 12 11 10 8 7 7 7 7 7 7 7 7 8 8 7 6 6 6 5 6 6 6 7
11 19 15 8 11 18 18 15 13 12 12 12 7 3 6 10 10 8 10 12 12 11 8 4 3 4 4 4 5 6 5 5 6 7 8 8 7 7 8 7 8 8 8 7 7 7 7 6 6 7 9 11 13 13 13 13 12 11 11 11 12 12 11 10 9 7 7 7 7 8 7 7 7 8 8 7 6 6 6 5 5 5 6 6 7
Height
5716 5720 5726 5731 5736 5740 5747 5752 5755 5759 5763 5766 5771 5776 5781 5785 5789 5792 5796 5799 5802 5805 5808 5811 5813 5815 5817 5819 5821 5824 5826 5828 5829 5830 5831 5831 5832 5832 5831 5832 5832 5832 5831 5830 5830 5829 5828 5827 5826 5825 5825 5825 5824 5824 5823 5822 5821 5820 5820 5819 5818 5817 5815 5814 5812 5810 5809 5807 5806 5804 5802 5800 5798 5797 5795 5793 5791 5789 5787 5785 5784 5782 5781 5780 5778
5712 5716 5721 5727 5732 5738 5745 5748 5750 5754 5759 5761 5766 5772 5777 5782 5786 5790 5793 5797 5800 5803 5805 5808 5810 5812 5814 5817 5819 5821 5823 5825 5826 5827 5828 5829 5829 5830 5830 5830 5830 5830 5829 5828 5827 5827 5826 5825 5824 5823 5823 5823 5822 5822 5821 5820 5819 5818 5817 5816 5815 5814 5813 5811 5809 5808 5807 5805 5804 5802 5800 5799 5797 5795 5793 5791 5789 5787 5785 5783 5782 5780 5779 5777 5775
5708 5713 5718 5724 5730 5736 5741 5743 5746 5749 5753 5757 5762 5769 5774 5779 5783 5787 5790 5793 5796 5799 5802 5805 5807 5810 5812 5815 5817 5819 5820 5821 5823 5824 5825 5826 5827 5827 5828 5828 5828 5828 5827 5825 5825 5824 5824 5823 5822 5821 5821 5821 5820 5820 5819 5818 5817 5815 5815 5814 5813 5812 5811 5809 5807 5806 5805 5804 5802 5800 5798 5797 5795 5793 5791 5789 5787 5785 5783 5782 5780 5779 5777 5775 5773
5704 5709 5715 5720 5726 5731 5735 5739 5742 5746 5749 5753 5759 5766 5771 5775 5779 5783 5786 5790 5793 5796 5799 5802 5805 5807 5810 5812 5814 5815 5817 5818 5820 5821 5822 5822 5824 5825 5826 5826 5826 5825 5824 5824 5823 5822 5821 5820 5820 5819 5819 5819 5818 5817 5817 5816 5814 5813 5812 5811 5810 5809 5808 5807 5805 5804 5803 5801 5800 5798 5796 5795 5793 5791 5789 5787 5785 5783 5782 5780 5778 5777 5775 5773 5771
5700 5706 5711 5716 5722 5727 5731 5734 5739 5743 5746 5751 5757 5763 5767 5771 5775 5779 5783 5787 5791 5794 5797 5799 5802 5804 5807 5809 5811 5812 5814 5816 5817 5817 5818 5819 5821 5823 5823 5823 5823 5823 5823 5822 5821 5820 5819 5818 5818 5817 5817 5817 5816 5815 5815 5814 5812 5811 5810 5809 5808 5807 5806 5805 5803 5802 5801 5799 5798 5796 5794 5793 5791 5789 5787 5785 5783 5781 5780 5778 5776 5774 5772 5771 5769
5697 5703 5707 5713 5719 5724 5728 5731 5735 5740 5744 5748 5754 5759 5763 5767 5772 5776 5781 5785 5788 5792 5794 5797 5799 5802 5804 5806 5808 5809 5811 5813 5814 5814 5815 5816 5817 5820 5821 5821 5820 5821 5821 5820 5819 5818 5816 5816 5815 5815 5814 5814 5814 5813 5813 5812 5810 5809 5808 5807 5806 5805 5804 5802 5801 5800 5798 5797 5795 5794 5792 5791 5789 5787 5785 5783 5781 5779 5777 5775 5773 5771 5769 5768 5766
5693 5699 5704 5710 5716 5720 5724 5728 5732 5737 5742 5746 5751 5755 5759 5764 5769 5774 5778 5782 5786 5789 5792 5794 5797 5799 5801 5803 5805 5806 5808 5810 5810 5811 5811 5812 5814 5816 5817 5818 5818 5818 5818 5818 5817 5816 5814 5813 5812 5812 5811 5811 5811 5811 5810 5809 5808 5807 5806 5805 5804 5803 5802 5800 5799 5798 5796 5795 5793 5792 5790 5788 5787 5785 5783 5780 5778 5776 5774 5772 5770 5768 5766 5765 5763
5690 5695 5700 5706 5711 5716 5720 5724 5728 5734 5739 5743 5747 5752 5756 5762 5766 5771 5776 5780 5783 5786 5789 5792 5794 5796 5798 5800 5802 5804 5805 5806 5807 5807 5808 5809 5812 5814 5814 5815 5815 5815 5816 5815 5815 5814 5812 5811 5810 5809 5808 5808 5808 5808 5807 5807 5806 5804 5803 5802 5801 5800 5799 5798 5797 5796 5794 5793 5791 5789 5788 5786 5784 5782 5780 5778 5775 5773 5771 5769 5767 5765 5763 5762 5760
5686 5692 5697 5702 5707 5711 5716 5721 5725 5731 5735 5739 5744 5749 5754 5759 5764 5768 5773 5777 5780 5783 5787 5790 5792 5794 5796 5797 5799 5801 5802 5803 5803 5804 5805 5807 5809 5811 5812 5812 5812 5812 5813 5813 5812 5811 5809 5808 5807 5806 5805 5805 5805 5805 5804 5804 5803 5802 5801 5799 5798 5797 5796 5795 5794 5793 5792 5790 5788 5787 5785 5783 5781 5779 5777 5775 5773 5771 5768 5766 5765 5763 5760 5758 5756
5682 5688 5694 5699 5703 5708 5713 5717 5721 5727 5731 5736 5741 5747 5752 5757 5761 5766 5770 5773 5777 5780 5784 5787 5789 5791 5793 5794 5796 5797 5798 5799 5800 5801 5803 5804 5806 5808 5808 5809 5809 5809 5810 5809 5809 5808 5806 5805 5804 5803 5802 5801 5802 5802 5801 5800 5800 5799 5798 5797 5796 5795 5793 5792 5791 5790 5789 5787 5786 5784 5782 5780 5778 5776 5774 5772 5770 5768 5766 5764 5762 5760 5757 5755 5752
5679 5685 5691 5696 5700 5705 5709 5713 5717 5723 5728 5733 5739 5744 5749 5754 5758 5762 5766 5770 5773 5776 5780 5784 5786 5787 5789 5791 5792 5793 5795 5796 5797 5798 5800 5801 5803 5804 5805 5806 5806 5806 5806 5806 5806 5805 5803 5802 5800 5799 5798 5798 5798 5799 5799 5798 5797 5795 5794 5793 5793 5792 5791 5789 5788 5787 5786 5784 5783 5781 5779 5777 5775 5773 5771 5769 5767 5765 5763 5760 5759 5757 5754 5751 5749
5675 5682 5688 5693 5697 5702 5706 5710 5715 5720 5726 5732 5737 5742 5746 5751 5755 5759 5763 5767 5770 5773 5777 5780 5782 5784 5786 5787 5788 5790 5791 5792 5793 5795 5797 5798 5799 5800 5801 5802 5802 5803 5803 5803 5803 5802 5800 5799 5797 5796 5794 5794 5795 5796 5795 5794 5794 5792 5791 5790 5790 5789 5788 5786 5785 5784 5783 5781 5780 5778 5776 5774 5772 5770 5768 5766 5764 5762 5759 5757 5755 5753 5751 5748 5745
5671 5677 5683 5689 5693 5698 5703 5708 5713 5718 5724 5730 5735 5739 5743 5747 5751 5755 5760 5763 5766 5770 5774 5777 5778 5780 5782 5783 5784 5786 5787 5788 5789 5791 5793 5794 5795 5796 5797 5798 5799 5800 5800 5800 5799 5799 5797 5796 5794 5793 5791 5791 5792 5792 5792 5792 5791 5789 5788 5787 5787 5786 5785 5784 5782 5781 5780 5778 5776 5774 5772 5770 5768 5766 5764 5762 5760 5758 5756 5754 5751 5749 5747 5745 5742
5667 5673 5679 5684 5689 5694 5699 5704 5709 5715 5722 5727 5732 5736 5740 5744 5748 5752 5756 5759 5763 5767 5771 5773 5774 5776 5778 5779 5780 5781 5782 5784 5786 5788 5790 5791 5792 5793 5794 5795 5796 5796 5797 5797 5796 5796 5795 5793 5792 5790 5789 5789 5789 5789 5789 5789 5788 5786 5785 5784 5784 5783 5782 5781 5779 5778 5777 5775 5773 5771 5769 5766 5765 5763 5761 5759 5757 5754 5752 5750 5747 5745 5744 5742 5739
5663 5669 5675 5680 5685 5691 5696 5701 5706 5712 5718 5723 5728 5732 5736 5741 5745 5749 5753 5757 5760 5764 5767 5769 5770 5772 5773 5774 5775 5777 5778 5780 5782 5784 5785 5786 5788 5789 5790 5792 5793 5793 5793 5793 5793 5793 5792 5791 5789 5788 5787 5786 5786 5786 5786 5785 5784 5783 5782 5781 5780 5779 5779 5777 5776 5775 5773 5771 5769 5767 5765 5763 5761 5759 5758 5756 5754 5751 5748 5746 5743 5741 5740 5738 5735
5660 5665 5671 5677 5682 5688 5693 5697 5703 5709 5714 5720 5724 5728 5733 5738 5742 5746 5750 5754 5757 5760 5763 5765 5767 5768 5770 5770 5772 5774 5775 5777 5779 5780 5781 5782 5784 5786 5787 5789 5789 5790 5790 5790 5789 5789 5789 5788 5786 5785 5784 5784 5783 5783 5783 5782 5781 5780 5779 5778 5777 5776 5775 5774 5772 5771 5769 5767 5765 5764 5761 5759 5758 5756 5754 5752 5750 5748 5745 5742 5740 5737 5735 5733 5730
5657 5662 5668 5674 5680 5685 5689 5693 5699 5705 5711 5716 5721 5725 5730 5734 5739 5743 5747 5750 5753 5756 5759 5761 5763 5765 5766 5767 5769 5771 5772 5774 5775 5777 5778 5779 5781 5783 5784 5785 5786 5786 5786 5786 5786 5786 5786 5784 5783 5782 5781 5781 5780 5780 5779 5779 5778 5776 5775 5774 5773 5772 5772 5770 5769 5767 5765 5763 5761 5760 5757 5755 5754 5752 5750 5748 5746 5744 5741 5739 5736 5733 5730 5729 5726
5655 5660 5666 5672 5678 5682 5686 5691 5696 5702 5708 5713 5718 5722 5726 5731 5735 5740 5743 5746 5749 5753 5755 5757 5759 5761 5763 5765 5767 5768 5769 5771 5772 5773 5774 5776 5777 5779 5781 5782 5782 5783 5783 5783 5783 5783 5783 5781 5780 5779 5778 5777 5777 5776 5776 5775 5774 5773 5772 5771 5770 5769 5768 5767 5765 5763 5761 5759 5757 5755 5753 5751 5749 5747 5746 5744 5741 5739 5737 5735 5732 5729 5726 5724 5722
5653 5658 5664 5669 5674 5679 5684 5689 5694 5700 5705 5710 5714 5718 5723 5727 5732 5736 5739 5742 5745 5749 5751 5753 5755 5757 5760 5762 5764 5765 5766 5768 5769 5770 5771 5772 5774 5776 5777 5778 5779 5779 5780 5780 5779 5779 5779 5778 5777 5776 5775 5774 5773 5773 5772 5771 5770 5769 5768 5767 5767 5766 5765 5763 5761 5759 5757 5755 5753 5751 5749 5747 5745 5743 5741 5739 5737 5735 5733 5730 5728 5725 5723 5720 5718
5651 5656 5660 5665 5670 5675 5680 5686 5692 5697 5702 5706 5709 5713 5718 5723 5727 5732 5735 5738 5742 5745 5748 5750 5752 5754 5757 5759 5761 5762 5763 5765 5766 5767 5768 5769 5771 5772 5773 5774 5775 5776 5776 5776 5776 5775 5775 5774 5773 5772 5771 5770 5770 5769 5768 5767 5766 5765 5764 5764 5763 5762 5761 5759 5757 5755 5753 5751 5749 5747 5745 5743 5741 5739 5737 5735 5733 5731 5728 5726 5724 5721 5718 5716 5713
5648 5653 5657 5662 5667 5672 5677 5683 5689 5693 5697 5701 5704 5708 5713 5719 5724 5728 5731 5734 5738 5742 5744 5747 5749 5751 5754 5756 5758 5759 5760 5761 5762 5764 5765 5766 5767 5768 5770 5771 5772 5772 5772 5772 5772 5771 5771 5770 5769 5768 5767 5766 5765 5764 5764 5763 5762 5761 5760 5760 5759 5758 5757 5755 5753 5751 5749 5747 5745 5743 5741 5739 5737 5735 5734 5731 5729 5727 5724 5722 5720 5717 5714 5711 5708
5646 5650 5654 5659 5663 5668 5674 5680 5685 5689 5692 5696 5700 5704 5709 5715 5721 5724 5727 5731 5735 5738 5741 5743 5745 5748 5751 5753 5754 5755 5757 5758 5759 5761 5762 5763 5764 5765 5767 5768 5769 5769 5768 5768 5768 5767 5766 5766 5765 5764 5763 5762 5761 5760 5760 5759 5758 5757 5756 5756 5755 5754 5753 5751 5749 5747 5745 5743 5741 5739 5737 5735 5733 5731 5729 5727 5725 5723 5720 5718 5715 5712 5709 5706 5703
5644 5648 5652 5656 5661 5666 5671 5677 5681 5685 5688 5692 5696 5701 5706 5712 5716 5720 5724 5728 5731 5734 5737 5740 5742 5745 5747 5749 5750 5752 5753 5755 5756 5757 5758 5759 5761 5762 5763 5764 5765 5764 5764 5764 5764 5763 5762 5761 5760 5759 5758 5757 5756 5756 5756 5755 5754 5753 5752 5752 5751 5750 5748 5746 5745 5743 5741 5739 5737 5735 5733 5731 5729 5727 5725 5723 5721 5719 5716 5714 5710 5707 5704 5701 5699
5642 5646 5650 5655 5659 5664 5669 5673 5677 5681 5685 5689 5693 5697 5703 5708 5712 5717 5721 5724 5727 5731 5734 5736 5739 5742 5744 5745 5747 5749 5750 5751 5753 5754 5755 5756 5757 5758 5759 5760 5760 5760 5760 5760 5759 5759 5758 5756 5755 5754 5754 5753 5752 5752 5752 5751 5750 5749 5748 5748 5747 5745 5744 5742 5740 5739 5737 5735 5733 5731 5729 5727 5724 5722 5720 5718 5716 5714 5712 5709 5706 5703 5700 5697 5695
5641 5645 5649 5653 5657 5662 5666 5670 5674 5678 5682 5686 5690 5694 5699 5705 5709 5714 5718 5721 5723 5727 5731 5733 5736 5738 5740 5742 5744 5745 5746 5748 5749 5750 5752 5753 5754 5755 5755 5756 5757 5757 5756 5756 5755 5755 5753 5752 5750 5749 5749 5748 5748 5748 5747 5746 5745 5745 5744 5743 5742 5741 5739 5738 5736 5734 5733 5731 5729 5727 5724 5722 5720 5718 5716 5714 5712 5710 5707 5704 5702 5699 5696 5693 5690
5639 5643 5647 5651 5654 5658 5662 5667 5671 5676 5680 5684 5688 5692 5696 5701 5705 5709 5713 5717 5720 5724 5727 5729 5732 5734 5736 5738 5740 5741 5743 5745 5746 5747 5748 5749 5750 5751 5752 5753 5753 5753 5752 5752 5751 5750 5748 5747 5746 5745 5744 5744 5744 5743 5743 5742 5741 5740 5740 5739 5738 5736 5735 5733 5732 5730 5729 5727 5725 5722 5720 5718 5716 5714 5712 5710 5708 5705 5703 5700 5697 5694 5692 5689 5686
5637 5640 5644 5648 5652 5656 5660 5664 5669 5674 5678 5682 5685 5689 5693 5698 5702 5706 5711 5715 5718 5720 5723 5725 5727 5729 5732 5734 5736 5737 5739 5741 5742 5743 5744 5745 5746 5747 5748 5749 5750 5749 5748 5748 5747 5745 5744 5743 5742 5741 5740 5740 5740 5739 5738 5737 5737 5736 5735 5734 5733 5732 5730 5729 5728 5726 5724 5722 5720 5718 5716 5714 5712 5710 5708 5706 5704 5701 5698 5696 5693 5690 5687 5685 5682
5634 5638 5642 5646 5650 5654 5658 5662 5666 5670 5675 5679 5683 5687 5691 5695 5699 5704 5709 5713 5714 5715 5718 5720 5722 5725 5728 5730 5731 5733 5735 5737 5738 5739 5740 5741 5742 5743 5745 5745 5745 5745 5744 5743 5742 5741 5740 5739 5738 5737 5736 5736 5736 5735 5734 5733 5732 5731 5730 5729 5728 5727 5726 5725 5723 5722 5720 5717 5715 5714 5712 5710 5708 5706 5704 5702 5699 5696 5694 5691 5689 5686 5683 5680 5678
5633 5636 5640 5644 5647 5651 5655 5659 5663 5667 5672 5677 5681 5684 5688 5692 5696 5700 5704 5708 5709 5710 5713 5715 5717 5720 5723 5725 5727 5729 5731 5732 5733 5734 5736 5737 5738 5739 5740 5741 5741 5740 5740 5739 5738 5737 5736 5735 5734 5733 5733 5732 5731 5730 5729 5728 5727 5727 5726 5725 5724 5723 5722 5720 5718 5717 5715 5713 5711 5709 5708 5706 5704 5702 5700 5697 5695 5692 5689 5687 5684 5681 5679 5676 5673
5631 5635 5638 5641 5645 5649 5653 5656 5660 5665 5670 5674 5677 5680 5685 5690 5694 5696 5700 5702 5704 5706 5709 5712 5714 5717 5720 5722 5723 5725 5727 5728 5729 5731 5732 5733 5734 5735 5736 5736 5736 5736 5735 5735 5734 5733 5732 5731 5730 5730 5729 5728 5727 5726 5725 5724 5723 5722 5722 5721 5720 5719 5717 5716 5714 5712 5710 5709 5707 5706 5704 5702 5700 5697 5695 5693 5690 5687 5685 5682 5680 5677 5675 5671 5668
5631 5634 5637 5640 5645 5648 5650 5654 5657 5661 5666 5670 5674 5677 5682 5686 5689 5692 5695 5697 5700 5703 5706 5710 5712 5715 5717 5718 5719 5721 5722 5724 5726 5727 5728 5729 5730 5730 5731 5731 5731 5731 5731 5730 5730 5729 5728 5727 5726 5726 5724 5723 5722 5721 5720 5719 5719 5719 5718 5717 5716 5714 5713 5711 5710 5708 5707 5705 5703 5701 5699 5697 5695 5693 5691 5688 5686 5683 5680 5678 5675 5673 5670 5666 5663
5632 5634 5637 5641 5644 5646 5648 5651 5655 5659 5663 5667 5671 5674 5678 5682 5685 5688 5691 5694 5698 5701 5704 5707 5709 5711 5713 5714 5715 5716 5718 5720 5721 5722 5723 5724 5725 5726 5726 5726 5726 5726 5726 5726 5725 5725 5724 5723 5722 5721 5720 5719 5718 5717 5716 5716 5715 5715 5714 5712 5711 5710 5709 5707 5706 5704 5702 5701 5699 5697 5695 5693 5690 5688 5686 5683 5681 5679 5676 5674 5671 5668 5665 5662 5659
5630 5632 5635 5639 5642 5644 5647 5651 5654 5658 5661 5665 5669 5672 5676 5679 5683 5686 5690 5693 5696 5698 5701 5703 5705 5706 5708 5709 5710 5712 5714 5715 5717 5718 5719 5720 5721 5721 5721 5721 5721 5721 5721 5721 5721 5720 5719 5718 5717 5716 5715 5714 5714 5713 5713 5712 5711 5710 5709 5708 5707 5705 5704 5703 5701 5700 5698 5696 5694 5692 5690 5688 5686 5683 5681 5679 5677 5674 5672 5670 5667 5664 5660 5658 5655
5628 5631 5634 5637 5640 5643 5646 5650 5653 5656 5660 5664 5667 5671 5674 5678 5682 5685 5688 5691 5693 5695 5697 5699 5701 5702 5703 5704 5706 5708 5710 5711 5712 5713 5715 5716 5717 5717 5716 5716 5716 5716 5716 5716 5716 5715 5714 5713 5712 5711 5711 5710 5710 5709 5709 5708 5707 5706 5704 5703 5702 5701 5700 5698 5696 5695 5693 5691 5689 5687 5685 5683 5681 5679 5677 5675 5673 5670 5668 5665 5662 5659 5657 5654 5650
5629 5631 5634 5637 5640 5643 5645 5648 5651 5654 5657 5661 5665 5668 5672 5675 5679 5682 5684 5687 5689 5691 5693 5695 5696 5698 5699 5700 5702 5704 5706 5707 5708 5709 5710 5711 5711 5711 5712 5712 5712 5712 5712 5712 5711 5710 5710 5709 5708 5707 5706 5706 5705 5705 5704 5703 5702 5701 5700 5699 5698 5697 5695 5693 5691 5690 5688 5686 5684 5683 5681 5679 5677 5675 5672 5670 5669 5666 5664 5661 5658 5655 5653 5650 5646
5629 5632 5634 5637 5638 5640 5643 5646 5650 5652 5655 5659 5662 5665 5669 5673 5676 5679 5681 5683 5685 5687 5689 5690 5692 5693 5695 5697 5699 5701 5702 5702 5703 5704 5704 5705 5706 5707 5707 5707 5707 5707 5707 5707 5706 5706 5705 5704 5704 5703 5702 5702 5701 5701 5700 5699 5698 5697 5696 5695 5693 5692 5690 5688 5686 5685 5683 5682 5680 5678 5676 5674 5672 5670 5668 5666 5664 5662 5659 5656 5654 5652 5649 5646 5642
5631 5633 5634 5635 5636 5637 5640 5644 5648 5651 5655 5658 5660 5664 5667 5670 5673 5675 5678 5680 5682 5683 5685 5687 5688 5689 5691 5693 5695 5696 5697 5698 5698 5699 5700 5701 5701 5702 5702 5703 5703 5702 5702 5702 5702 5701 5701 5700 5700 5699 5698 5698 5697 5697 5696 5695 5694 5693 5691 5690 5688 5687 5685 5683 5682 5680 5678 5677 5675 5673 5671 5670 5668 5666 5664 5662 5660 5658 5655 5653 5650 5648 5645 5641 5638
5632 5632 5633 5634 5636 5637 5639 5643 5646 5650 5654 5657 5660 5663 5665 5668 5670 5672 5674 5676 5678 5680 5682 5683 5684 5685 5687 5689 5690 5692 5692 5693 5694 5695 5696 5696 5697 5697 5698 5698 5698 5698 5698 5698 5697 5697 5697 5696 5696 5695 5694 5694 5693 5692 5692 5691 5689 5688 5686 5685 5683 5682 5680 5679 5677 5675 5673 5672 5670 5669 5667 5666 5664 5662 5660 5658 5656 5653 5651 5649 5646 5644 5640 5637 5634
5631 5631 5632 5633 5635 5637 5639 5642 5646 5649 5652 5655 5657 5660 5662 5665 5667 5669 5671 5673 5675 5677 5678 5680 5681 5682 5683 5684 5685 5687 5688 5689 5690 5691 5692 5692 5693 5693 5693 5693 5693 5694 5694 5693 5693 5693 5692 5692 5691 5691 5690 5689 5688 5687 5686 5685 5684 5683 5681 5680 5678 5677 5676 5674 5673 5671 5669 5667 5666 5665 5663 5662 5660 5658 5656 5654 5652 5649 5647 5645 5642 5639 5636 5633 5630
5630 5631 5631 5632 5634 5636 5639 5642 5645 5648 5650 5652 5654 5657 5659 5661 5663 5665 5667 5669 5671 5673 5674 5676 5677 5678 5679 5680 5681 5682 5684 5685 5686 5686 5687 5688 5688 5689 5689 5689 5689 5689 5689 5689 5688 5688 5688 5687 5687 5686 5686 5685 5683 5682 5681 5680 5678 5677 5676 5675 5673 5672 5671 5670 5668 5667 5665 5664 5662 5661 5659 5658 5656 5654 5652 5650 5648 5645 5643 5640 5638 5635 5632 5629 5626
5628 5630 5631 5632 5634 5635 5638 5642 5645 5646 5648 5649 5651 5653 5655 5657 5659 5661 5662 5665 5667 5668 5670 5672 5673 5674 5675 5676 5677 5679 5680 5681 5681 5682 5683 5684 5684 5684 5685 5685 5685 5685 5684 5684 5683 5683 5683 5683 5682 5681 5680 5679 5678 5677 5676 5674 5673 5672 5671 5670 5669 5668 5666 5665 5664 5663 5661 5660 5658 5657 5655 5653 5652 5650 5648 5646 5643 5641 5639 5636 5633 5631 5628 5625 5621
5625 5628 5630 5631 5633 5635 5637 5640 5642 5644 5646 5647 5649 5651 5652 5654 5656 5657 5658 5660 5662 5664 5666 5667 5668 5669 5671 5672 5673 5675 5675 5676 5677 5678 5679 5679 5680 5680 5680 5680 5680 5680 5679 5679 5678 5678 5678 5677 5677 5676 5675 5674 5672 5671 5670 5669 5668 5667 5666 5665 5664 5663 5662 5661 5659 5658 5657 5655 5654 5652 5651 5649 5647 5645 5643 5641 5639 5636 5634 5632 5629 5627 5624 5620 5617
5623 5625 5626 5628 5631 5633 5635 5637 5640 5642 5643 5645 5647 5648 5649 5651 5653 5654 5655 5656 5657 5659 5661 5663 5664 5665 5666 5668 5669 5670 5671 5672 5673 5674 5674 5675 5675 5675 5675 5675 5675 5675 5674 5674 5674 5674 5673 5672 5671 5670 5669 5668 5667 5666 5665 5664 5664 5663 5661 5660 5659 5658 5657 5656 5655 5653 5652 5651 5650 5648 5647 5645 5643 5641 5638 5636 5634 5632 5630 5628 5625 5622 5619 5616 5612
5620 5622 5623 5625 5627 5629 5631 5634 5636 5638 5640 5642 5643 5644 5646 5648 5649 5650 5651 5652 5653 5655 5656 5658 5659 5660 5661 5662 5664 5666 5667 5668 5669 5669 5669 5670 5670 5670 5670 5670 5670 5670 5669 5669 5669 5668 5668 5667 5666 5665 5664 5663 5662 5662 5661 5660 5659 5658 5657 5656 5655 5653 5652 5651 5650 5649 5648 5647 5645 5644 5642 5640 5638 5636 5634 5632 5630 5628 5626 5623 5621 5618 5615 5611 5608
5618 5619 5620 5622 5624 5625 5627 5630 5632 5634 5636 5638 5639 5640 5642 5644 5645 5646 5648 5648 5649 5650 5652 5653 5654 5655 5656 5658 5660 5662 5663 5663 5664 5664 5664 5664 5665 5665 5665 5665 5665 5665 5664 5664 5664 5663 5662 5662 5661 5660 5659 5658 5658 5657 5656 5655 5654 5653 5652 5651 5650 5649 5648 5647 5645 5644 5643 5642 5640 5639 5637 5635 5633 5632 5630 5628 5626 5624 5621 5619 5616 5613 5610 5607 5603
5614 5616 5618 5619 5621 5622 5623 5625 5628 5630 5631 5633 5635 5636 5637 5639 5641 5642 5643 5644 5645 5646 5647 5648 5649 5651 5652 5654 5656 5657 5657 5658 5658 5658 5659 5659 5659 5659 5659 5659 5660 5659 5659 5659 5658 5658 5657 5657 5656 5655 5654 5653 5652 5652 5651 5650 5649 5648 5647 5646 5645 5644 5643 5642 5641 5640 5638 5637 5636 5634 5632 5631 5629 5627 5626 5624 5621 5619 5617 5614 5611 5608 5606 5602 5599
5608 5611 5614 5617 5619 5620 5620 5620 5623 5625 5627 5629 5630 5632 5633 5635 5636 5637 5638 5639 5641 5642 5643 5644 5645 5647 5648 5650 5651 5651 5652 5653 5653 5653 5654 5654 5654 5654 5654 5655 5655 5655 5654 5654 5654 5653 5652 5651 5650 5650 5649 5648 5647 5647 5646 5645 5644 5643 5642 5641 5640 5639 5638 5637 5636 5635 5634 5632 5631 5629 5628 5626 5625 5623 5621 5619 5617 5614 5612 5609 5607 5604 5601 5598 5595
5607 5609 5611 5614 5616 5617 5617 5618 5620 5622 5623 5624 5626 5627 5628 5630 5631 5632 5633 5634 5636 5638 5638 5639 5640 5642 5643 5644 5645 5646 5646 5647 5648 5648 5649 5649 5649 5649 5649 5650 5650 5650 5649 5649 5648 5647 5647 5646 5645 5645 5644 5643 5643 5642 5641 5640 5639 5638 5638 5637 5636 5635 5633 5632 5631 5630 5629 5628 5626 5625 5623 5622 5620 5618 5616 5614 5612 5610 5607 5605 5602 5600 5597 5594 5591
5606 5607 5608 5609 5611 5612 5613 5615 5616 5617 5618 5619 5620 5621 5622 5624 5626 5627 5628 5629 5630 5631 5633 5634 5635 5636 5637 5638 5639 5640 5641 5642 5642 5643 5644 5644 5644 5644 5644 5644 5644 5644 5644 5643 5643 5642 5641 5641 5640 5640 5639 5638 5638 5637 5636 5635 5634 5633 5633 5632 5631 5630 5629 5627 5626 5625 5624 5623 5621 5620 5619 5617 5615 5613 5611 5609 5607 5605 5603 5600 5598 5595 5592 5589 5586
5603 5604 5604 5605 5606 5607 5608 5609 5611 5612 5612 5613 5614 5616 5617 5618 5620 5621 5622 5623 5624 5625 5627 5628 5630 5631 5632 5633 5634 5635 5635 5636 5637 5638 5638 5639 5639 5639 5639 5639 5639 5639 5638 5638 5637 5637 5636 5635 5635 5634 5634 5633 5632 5631 5631 5630 5629 5629 5628 5627 5626 5625 5623 5622 5621 5620 5619 5618 5617 5615 5614 5612 5610 5608 5606 5604 5602 5600 5598 5596 5593 5591 5588 5585 5582
5599 5600 5600 5601 5602 5603 5603 5604 5605 5606 5607 5608 5609 5611 5612 5613 5615 5616 5617 5618 5619 5620 5621 5623 5624 5625 5626 5628 5628 5629 5630 5631 5632 5632 5633 5633 5633 5633 5633 5633 5633 5633 5632 5632 5631 5631 5631 5630 5630 5629 5629 5628 5627 5626 5626 5625 5624 5623 5623 5622 5620 5619 5618 5617 5616 5615 5614 5613 5612 5610 5609 5607 5605 5603 5601 5600 5598 5595 5593 5591 5589 5586 5583 5581 5578